AAR8707 RKSS-RKJJ

Flight info

Callsign AAR8707
Flight time 0h 33m
Altitude 20000
Route BULTI2Q BULTI Y711 MANGI
Aircraft A321/M-SDE3FGHIRWY/LB1

Departure

Time 2026-05-04 09:31
Airport Gimpo International Airport (RKSS)

Arrival

Time 2026-05-04 10:05
Airport Gwangju Airport (RKJJ)
Time Latitude Longitude Altitude Speed Heading
2026-05-04 09:14 37.55788 126.80248 66 ft 0 kts 45°
2026-05-04 09:25 37.55751 126.80151 68 ft 2 kts 114°
2026-05-04 09:25 37.55758 126.80135 68 ft 0 kts 132°
2026-05-04 09:26 37.55763 126.80130 68 ft 1 kts 136°
2026-05-04 09:26 37.55764 126.80128 68 ft 0 kts 136°
2026-05-04 09:28 37.55734 126.80166 68 ft 15 kts 135°
2026-05-04 09:29 37.55615 126.80303 64 ft 26 kts 167°
2026-05-04 09:29 37.55466 126.80190 61 ft 24 kts 194°
2026-05-04 09:29 37.55335 126.80303 59 ft 23 kts 136°
2026-05-04 09:29 37.55214 126.80453 56 ft 24 kts 136°
2026-05-04 09:30 37.55093 126.80606 55 ft 24 kts 135°
2026-05-04 09:30 37.54977 126.80751 55 ft 23 kts 134°
2026-05-04 09:30 37.54866 126.80782 55 ft 17 kts 242°
2026-05-04 09:30 37.54827 126.80655 55 ft 15 kts 296°
2026-05-04 09:31 37.54904 126.80547 55 ft 22 kts 314°
2026-05-04 09:31 37.55228 126.80136 60 ft 110 kts 316°
2026-05-04 09:31 37.55948 126.79224 233 ft 169 kts 311°
2026-05-04 09:31 37.56747 126.78200 1259 ft 164 kts 309°
2026-05-04 09:32 37.57473 126.77160 2305 ft 163 kts 310°
2026-05-04 09:32 37.58226 126.76074 3109 ft 176 kts 309°
2026-05-04 09:34 37.59936 126.64228 7215 ft 268 kts 207°
2026-05-04 09:34 37.58275 126.63211 8209 ft 256 kts 219°
2026-05-04 09:34 37.56979 126.61682 8881 ft 252 kts 237°
2026-05-04 09:34 37.55938 126.59915 9660 ft 249 kts 236°
2026-05-04 09:35 37.54592 126.58484 10375 ft 256 kts 209°
2026-05-04 09:35 37.52811 126.58070 10810 ft 272 kts 175°
2026-05-04 09:35 37.50884 126.58468 11235 ft 283 kts 171°
2026-05-04 09:35 37.48914 126.58801 11748 ft 289 kts 176°
2026-05-04 09:37 37.34360 126.59668 15835 ft 306 kts 161°
2026-05-04 09:37 37.32300 126.60590 16456 ft 308 kts 159°
2026-05-04 09:38 37.30261 126.61520 16933 ft 311 kts 159°
2026-05-04 09:38 37.28164 126.62480 17458 ft 313 kts 156°
2026-05-04 09:38 37.26176 126.63676 17978 ft 314 kts 148°
2026-05-04 09:38 37.24262 126.65170 18582 ft 315 kts 144°
2026-05-04 09:39 37.22389 126.66730 19111 ft 318 kts 144°
2026-05-04 09:39 37.20512 126.68304 19622 ft 321 kts 145°
2026-05-04 09:39 37.18645 126.69855 19959 ft 329 kts 145°
2026-05-04 09:39 37.16670 126.71490 20015 ft 348 kts 145°
2026-05-04 09:40 37.14570 126.73219 19995 ft 367 kts 146°
2026-05-04 09:40 37.12417 126.74980 19998 ft 379 kts 146°
2026-05-04 09:40 37.10196 126.76794 20043 ft 382 kts 146°
2026-05-04 09:40 37.07944 126.78631 20007 ft 382 kts 146°
2026-05-04 09:41 37.05672 126.80373 19956 ft 383 kts 153°
2026-05-04 09:42 36.87099 126.82063 20044 ft 382 kts 180°
2026-05-04 09:43 36.84425 126.82147 20024 ft 382 kts 180°
2026-05-04 09:43 36.81760 126.82233 19998 ft 382 kts 180°
2026-05-04 09:43 36.79092 126.82320 20016 ft 381 kts 180°
2026-05-04 09:43 36.76409 126.82406 20046 ft 381 kts 180°
2026-05-04 09:44 36.73770 126.82490 20040 ft 381 kts 180°
2026-05-04 09:44 36.71084 126.82577 20023 ft 381 kts 180°
2026-05-04 09:44 36.68413 126.82678 20024 ft 381 kts 180°
2026-05-04 09:46 36.49606 126.83411 20035 ft 381 kts 181°
2026-05-04 09:46 36.46919 126.83513 20035 ft 380 kts 181°
2026-05-04 09:46 36.44238 126.83614 20028 ft 380 kts 181°
2026-05-04 09:47 36.41552 126.83717 20034 ft 380 kts 181°
2026-05-04 09:47 36.38903 126.83761 20033 ft 378 kts 184°
2026-05-04 09:49 36.20469 126.81847 19306 ft 381 kts 188°
2026-05-04 09:49 36.17807 126.81556 18828 ft 381 kts 188°
2026-05-04 09:49 36.15149 126.81268 18394 ft 379 kts 188°
2026-05-04 09:51 35.99444 126.79566 15899 ft 365 kts 188°
2026-05-04 09:51 35.96904 126.79291 15503 ft 363 kts 188°
2026-05-04 09:51 35.94386 126.79018 15066 ft 362 kts 188°
2026-05-04 09:51 35.91852 126.78745 14667 ft 360 kts 188°
2026-05-04 09:52 35.89360 126.78475 14274 ft 358 kts 188°
2026-05-04 09:52 35.86877 126.78206 13880 ft 356 kts 187°
2026-05-04 09:52 35.84396 126.77935 13488 ft 353 kts 187°
2026-05-04 09:52 35.81909 126.77666 13094 ft 351 kts 187°
2026-05-04 09:53 35.79479 126.77406 12706 ft 350 kts 187°
2026-05-04 09:53 35.77081 126.77146 12296 ft 349 kts 187°
2026-05-04 09:53 35.74659 126.76884 11950 ft 347 kts 187°
2026-05-04 09:53 35.72230 126.76620 11522 ft 346 kts 187°
2026-05-04 09:54 35.69837 126.76363 11115 ft 345 kts 187°
2026-05-04 09:54 35.67424 126.76104 10730 ft 343 kts 187°
2026-05-04 09:54 35.65049 126.75848 10365 ft 341 kts 187°
2026-05-04 09:54 35.62680 126.75594 10030 ft 337 kts 187°
2026-05-04 09:55 35.60354 126.75344 9885 ft 326 kts 187°
2026-05-04 09:55 35.58066 126.75098 9642 ft 319 kts 187°
2026-05-04 09:55 35.55837 126.74857 9351 ft 315 kts 187°
2026-05-04 09:55 35.53632 126.74638 9080 ft 311 kts 184°
2026-05-04 09:56 35.51527 126.75091 8733 ft 309 kts 154°
2026-05-04 09:56 35.49896 126.76738 8230 ft 298 kts 120°
2026-05-04 09:56 35.49247 126.79033 7879 ft 279 kts 92°
2026-05-04 09:56 35.49146 126.81403 7597 ft 274 kts 88°
2026-05-04 09:57 35.49054 126.83739 7291 ft 274 kts 90°
2026-05-04 09:57 35.48883 126.86079 6976 ft 274 kts 92°
2026-05-04 09:57 35.48654 126.88426 6660 ft 275 kts 94°
2026-05-04 09:57 35.48399 126.90737 6364 ft 274 kts 94°
2026-05-04 09:58 35.48067 126.93014 6177 ft 270 kts 105°
2026-05-04 09:58 35.47023 126.94875 5981 ft 269 kts 142°
2026-05-04 09:58 35.45295 126.95734 5741 ft 265 kts 172°
2026-05-04 10:00 35.32841 126.95414 3789 ft 243 kts 214°
2026-05-04 10:00 35.31441 126.94370 3737 ft 227 kts 215°
2026-05-04 10:02 35.22916 126.88292 2289 ft 163 kts 214°
2026-05-04 10:04 35.16559 126.83820 777 ft 146 kts 212°
2026-05-04 10:04 35.15670 126.83196 566 ft 146 kts 212°
2026-05-04 10:04 35.14786 126.82571 360 ft 145 kts 213°
2026-05-04 10:04 35.13913 126.81928 187 ft 145 kts 210°
2026-05-04 10:05 35.13055 126.81313 51 ft 140 kts 211°
2026-05-04 10:05 35.12382 126.80859 50 ft 69 kts 211°
2026-05-04 10:05 35.12264 126.80636 50 ft 20 kts 295°
2026-05-04 10:05 35.12334 126.80485 53 ft 20 kts 303°
2026-05-04 10:06 35.12407 126.80347 57 ft 18 kts 300°
2026-05-04 10:06 35.12485 126.80327 59 ft 12 kts 51°
2026-05-04 10:06 35.12549 126.80379 59 ft 17 kts 10°
2026-05-04 10:08 35.13313 126.80926 54 ft 22 kts 32°
2026-05-04 10:08 35.13447 126.81027 55 ft 21 kts 31°
2026-05-04 10:08 35.13575 126.81125 54 ft 21 kts 31°
2026-05-04 10:08 35.13701 126.81190 56 ft 12 kts 330°
2026-05-04 10:09 35.13755 126.81125 57 ft 10 kts 333°
2026-05-04 10:09 35.13797 126.81117 57 ft 0 kts 14°
2026-05-04 10:10 35.13806 126.81119 57 ft 3 kts 18°
2026-05-04 10:10 35.13845 126.81143 56 ft 8 kts 30°
2026-05-04 10:11 35.13906 126.81189 57 ft 11 kts 32°
2026-05-04 10:11 35.13974 126.81184 58 ft 10 kts 316°
2026-05-04 10:11 35.13990 126.81162 59 ft 0 kts 305°